DW1814 Weather Reports


Display with metric or nautical units.
time (UTC)temp
F
wind
direction
speed
MPH
gust
MPH
rain 1hr
in
rain 24hr
in
rain mn
in
humidity
%
barometer
mb
20260905003910 83 352 0.0 0.0 0.00 0.00 0.00 81 1011.0
20260905003407 83 352 0.0 0.0 0.00 0.00 0.00 81 1011.2
20260905002902 83 352 0.0 0.0 0.00 0.00 0.00 81 1011.5
20260905002401 83 315 0.0 0.0 0.00 0.00 0.00 80 1011.5
20260905001856 83 312 0.0 0.0 0.00 0.00 0.00 80 1011.5
20260905001356 83 38 0.0 1.0 0.00 0.00 0.00 79 1011.5
20260905000851 84 309 0.0 1.0 0.00 0.00 0.00 79 1011.4
20260905000347 84 322 0.0 0.0 0.00 0.00 0.00 78 1011.3
20260904235837 84 269 0.0 4.0 0.00 0.00 0.00 78 1011.3
20260904235332 84 341 0.0 0.0 0.00 0.00 0.00 77 1011.2
20260904234826 85 341 0.0 0.0 0.00 0.00 0.00 76 1011.3
20260904234321 85 321 0.0 0.0 0.00 0.00 0.00 76 1011.3
20260904233817 85 322 0.0 0.0 0.00 0.00 0.00 75 1011.2
20260904233313 86 354 0.0 1.0 0.00 0.00 0.00 74 1011.0
20260904232809 86 305 1.0 1.0 0.00 0.00 0.00 73 1010.9
20260904232307 87 302 0.0 1.0 0.00 0.00 0.00 72 1011.0
20260904231801 87 228 0.0 0.0 0.00 0.00 0.00 72 1011.3
20260904231301 87 230 0.0 0.0 0.00 0.00 0.00 73 1011.1
20260904230756 87 192 0.0 2.0 0.00 0.00 0.00 72 1011.2
20260904230249 87 304 0.0 1.0 0.00 0.00 0.00 71 1011.4
20260904225750 88 266 0.0 0.0 0.00 0.00 0.00 71 1011.3
20260904225244 88 309 0.0 1.0 0.00 0.00 0.00 68 1011.5
20260904224743 88 297 0.0 0.0 0.00 0.00 0.00 67 1011.2
20260904224238 88 304 0.0 2.0 0.00 0.00 0.00 67 1011.4
20260904223737 88 351 0.0 4.0 0.00 0.00 0.00 68 1011.5
20260904223232 88 230 0.0 1.0 0.00 0.00 0.00 69 1011.5
20260904222728 89 322 0.0 2.0 0.00 0.00 0.00 66 1011.4
20260904222224 89 218 0.0 2.0 0.00 0.00 0.00 66 1011.1
20260904221723 89 269 1.0 6.0 0.00 0.00 0.00 65 1011.6
20260904221219 89 290 0.0 2.0 0.00 0.00 0.00 64 1011.4
20260904220718 89 216 1.0 2.0 0.00 0.00 0.00 64 1011.4
20260904220213 89 326 0.0 1.0 0.00 0.00 0.00 63 1011.3
20260904215713 89 253 0.0 2.0 0.00 0.00 0.00 63 1011.5
20260904215210 90 289 1.0 2.0 0.00 0.00 0.00 62 1011.4
20260904214710 90 289 0.0 1.0 0.00 0.00 0.00 62 1011.4
20260904214206 90 292 2.0 4.0 0.00 0.00 0.00 63 1011.4
20260904213703 90 282 0.0 2.0 0.00 0.00 0.00 67 1011.4
20260904213200 90 309 0.0 2.0 0.00 0.00 0.00 65 1011.3
20260904212655 90 310 0.0 2.0 0.00 0.00 0.00 63 1011.2
20260904212150 90 231 1.0 2.0 0.00 0.00 0.00 63 1011.3
20260904211649 90 285 1.0 1.0 0.00 0.00 0.00 63 1011.3
20260904211145 90 245 1.0 2.0 0.00 0.00 0.00 61 1011.3
20260904210645 90 269 0.0 2.0 0.00 0.00 0.00 64 1011.0
20260904210140 90 240 0.0 2.0 0.00 0.00 0.00 62 1011.3
20260904205636 89 288 2.0 2.0 0.00 0.00 0.00 63 1011.2
20260904205132 89 266 1.0 2.0 0.00 0.00 0.00 62 1011.1
20260904204628 89 300 2.0 3.0 0.00 0.00 0.00 63 1011.2
20260904204124 90 242 0.0 2.0 0.00 0.00 0.00 61 1011.1
20260904203620 90 250 1.0 2.0 0.00 0.00 0.00 63 1011.0
20260904203116 90 284 2.0 2.0 0.00 0.00 0.00 64 1011.2
20260904202612 90 296 0.0 2.0 0.00 0.00 0.00 63 1011.4
20260904202108 90 231 0.0 2.0 0.00 0.00 0.00 62 1011.3
20260904201608 90 223 2.0 2.0 0.00 0.00 0.00 63 1011.4
20260904201103 90 216 0.0 4.0 0.00 0.00 0.00 63 1011.5
20260904200601 90 205 1.0 2.0 0.00 0.00 0.00 61 1011.5
20260904200057 90 232 1.0 2.0 0.00 0.00 0.00 61 1011.6
20260904195556 89 255 0.0 2.0 0.00 0.00 0.00 63 1011.7
20260904195055 89 264 2.0 2.0 0.00 0.00 0.00 63 1011.8
20260904194550 89 129 0.0 3.0 0.00 0.00 0.00 64 1011.9
20260904194045 89 322 1.0 2.0 0.00 0.00 0.00 62 1012.2
20260904193545 89 221 0.0 2.0 0.00 0.00 0.00 65 1012.3
20260904193042 88 275 0.0 2.0 0.00 0.00 0.00 63 1012.4
20260904192541 88 240 0.0 1.0 0.00 0.00 0.00 65 1012.6
20260904192037 87 317 0.0 2.0 0.00 0.00 0.00 65 1012.4
20260904191533 87 324 1.0 2.0 0.00 0.00 0.00 65 1012.7
20260904191030 87 281 0.0 2.0 0.00 0.00 0.00 66 1012.8
20260904190525 86 44 0.0 1.0 0.00 0.00 0.00 68 1012.7
20260904190021 86 301 0.0 2.0 0.00 0.00 0.00 65 1013.2
20260904185517 86 285 2.0 2.0 0.00 0.00 0.00 68 1013.1
20260904185012 86 249 2.0 3.0 0.00 0.00 0.00 65 1013.0
20260904184513 85 226 0.0 3.0 0.00 0.00 0.00 70 1013.3
20260904184008 85 199 0.0 3.0 0.00 0.00 0.00 69 1013.4
20260904183503 84 189 0.0 2.0 0.00 0.00 0.00 68 1013.3
20260904182958 84 261 0.0 4.0 0.00 0.00 0.00 68 1013.4
20260904182454 84 239 1.0 2.0 0.00 0.00 0.00 70 1013.6
20260904181953 84 277 1.0 2.0 0.00 0.00 0.00 71 1013.7
20260904181449 83 309 0.0 3.0 0.00 0.00 0.00 71 1013.8
20260904180943 82 162 0.0 3.0 0.00 0.00 0.00 71 1013.7
20260904180438 82 322 0.0 2.0 0.00 0.00 0.00 74 1013.7
20260904175938 82 274 1.0 2.0 0.00 0.00 0.00 74 1013.5
20260904175437 81 279 0.0 2.0 0.00 0.00 0.00 77 1013.4
20260904174931 80 214 0.0 5.0 0.00 0.00 0.00 77 1013.5
20260904174426 79 147 0.0 4.0 0.00 0.00 0.00 77 1013.6
20260904173923 79 60 0.0 2.0 0.00 0.00 0.00 79 1013.5
20260904173418 79 191 0.0 3.0 0.00 0.00 0.00 76 1013.8
20260904172914 79 69 2.0 3.0 0.00 0.00 0.00 79 1013.9
20260904172414 79 340 1.0 2.0 0.00 0.00 0.00 78 1014.2
20260904171908 79 48 1.0 4.0 0.00 0.00 0.00 79 1014.7
20260904171404 79 199 0.0 2.0 0.00 0.00 0.00 80 1014.7
20260904170900 79 324 0.0 3.0 0.00 0.00 0.00 82 1014.8
20260904170355 79 154 0.0 2.0 0.00 0.00 0.00 80 1015.2
20260904165850 80 356 3.0 7.0 0.00 0.00 0.00 78 1015.6
20260904165349 79 151 0.0 3.0 0.00 0.00 0.00 79 1016.1
20260904164844 78 40 3.0 4.0 0.00 0.00 0.00 80 1016.2
20260904164343 78 108 3.0 4.0 0.00 0.00 0.00 82 1016.4
20260904163840 77 160 0.0 6.0 0.00 0.00 0.00 83 1016.4
20260904163340 77 331 3.0 6.0 0.00 0.00 0.00 82 1016.7
20260904162839 78 21 1.0 5.0 0.00 0.00 0.00 82 1015.9
20260904162335 78 183 2.0 6.0 0.00 0.00 0.00 82 1015.6
20260904161831 78 34 5.0 6.0 0.00 0.00 0.00 82 1015.5
20260904161331 78 62 1.0 7.0 0.00 0.00 0.00 81 1015.8
20260904160826 78 111 4.0 6.0 0.00 0.00 0.00 81 1015.8
20260904160326 78 262 0.0 10.0 0.00 0.00 0.00 80 1015.8
20260904155821 78 254 2.0 5.0 0.00 0.00 0.00 82 1015.9
20260904155316 78 63 5.0 7.0 0.00 0.00 0.00 80 1015.9
20260904154814 77 103 5.0 7.0 0.00 0.00 0.00 82 1015.7
20260904154309 77 0 3.0 6.0 0.00 0.00 0.00 83 1015.7
20260904153805 77 352 5.0 6.0 0.00 0.00 0.00 84 1015.7
20260904153300 77 319 7.0 7.0 0.00 0.00 0.00 83 1015.7
20260904152757 77 348 8.0 11.0 0.00 0.00 0.00 83 1015.7
20260904152251 77 92 1.0 9.0 0.00 0.00 0.00 83 1015.8
20260904151746 78 54 1.0 4.0 0.00 0.00 0.00 84 1015.6
20260904151245 78 22 2.0 8.0 0.00 0.00 0.00 83 1015.6
20260904150742 78 318 4.0 6.0 0.00 0.00 0.00 82 1015.6
20260904150236 79 52 0.0 6.0 0.00 0.00 0.00 83 1015.3
20260904145734 80 348 2.0 8.0 0.00 0.00 0.00 82 1015.4
20260904145230 80 350 2.0 4.0 0.00 0.00 0.00 80 1014.6
20260904144725 79 176 2.0 4.0 0.00 0.00 0.00 84 1014.7
20260904144221 79 13 2.0 4.0 0.00 0.00 0.00 84 1014.6
20260904143716 78 287 0.0 4.0 0.00 0.00 0.00 84 1014.6
20260904143214 78 8 7.0 7.0 0.00 0.00 0.00 84 1014.3
20260904142710 78 88 4.0 6.0 0.00 0.00 0.00 84 1014.5
20260904142205 78 100 3.0 4.0 0.00 0.00 0.00 85 1014.5
20260904141705 78 34 3.0 7.0 0.00 0.00 0.00 84 1014.4
20260904141200 78 209 1.0 3.0 0.00 0.00 0.00 86 1014.5
20260904140656 77 321 2.0 7.0 0.00 0.00 0.00 86 1014.7
20260904140151 77 51 3.0 6.0 0.00 0.00 0.00 86 1014.5
20260904135650 77 48 1.0 9.0 0.00 0.00 0.00 86 1014.4
20260904135146 78 24 3.0 9.0 0.00 0.00 0.00 84 1014.5
20260904134641 77 98 1.0 3.0 0.00 0.00 0.00 86 1014.2
20260904134140 77 175 0.0 4.0 0.00 0.00 0.00 86 1014.2
20260904133636 76 280 2.0 5.0 0.00 0.00 0.00 87 1014.5
20260904133131 76 98 2.0 6.0 0.00 0.00 0.00 87 1014.5
20260904132626 76 47 1.0 2.0 0.00 0.00 0.00 88 1014.2
20260904132126 76 20 0.0 4.0 0.00 0.00 0.00 87 1014.3
20260904131625 76 34 2.0 4.0 0.00 0.00 0.00 86 1014.4
20260904131121 76 107 3.0 3.0 0.00 0.00 0.00 86 1014.4
20260904130620 76 85 2.0 3.0 0.00 0.00 0.00 86 1014.0
20260904130115 76 142 0.0 3.0 0.00 0.00 0.00 86 1013.8
20260904125613 75 334 2.0 4.0 0.00 0.00 0.00 88 1013.9
20260904125113 75 66 2.0 3.0 0.00 0.00 0.00 90 1013.7
20260904124608 75 100 4.0 5.0 0.00 0.00 0.00 90 1013.5
20260904124103 75 86 2.0 4.0 0.00 0.00 0.00 91 1013.5
20260904123603 75 115 2.0 2.0 0.00 0.00 0.00 92 1013.7
20260904123059 75 70 0.0 6.0 0.00 0.00 0.00 93 1013.4
20260904122559 75 94 1.0 5.0 0.00 0.00 0.00 94 1013.6
20260904122054 75 3 3.0 6.0 0.00 0.00 0.00 94 1013.3
20260904121550 74 51 0.0 5.0 0.00 0.00 0.00 96 1013.0
20260904121046 74 56 1.0 4.0 0.00 0.00 0.00 97 1013.0
20260904120542 74 37 0.0 2.0 0.00 0.00 0.00 97 1012.9
20260904120037 73 12 3.0 4.0 0.00 0.00 0.00 97 1013.0
20260904115537 73 114 0.0 3.0 0.00 0.00 0.00 98 1012.9
20260904115032 73 100 2.0 2.0 0.00 0.00 0.00 97 1012.7
20260904114527 73 65 0.0 3.0 0.00 0.00 0.00 97 1012.6
20260904114027 73 81 2.0 2.0 0.00 0.00 0.00 97 1012.6
20260904113527 73 37 1.0 2.0 0.00 0.00 0.00 97 1012.3
20260904113027 73 67 2.0 2.0 0.00 0.00 0.00 97 1012.3
20260904112522 73 3 2.0 3.0 0.00 0.00 0.00 97 1011.9
20260904112018 73 81 1.0 2.0 0.00 0.00 0.00 97 1012.0
20260904111514 73 78 2.0 3.0 0.00 0.00 0.00 97 1011.8
20260904111009 73 69 2.0 2.0 0.00 0.00 0.00 97 1012.0
20260904110508 73 114 0.0 1.0 0.00 0.00 0.00 97 1011.8
20260904110004 73 67 0.0 2.0 0.00 0.00 0.00 97 1011.6
20260904105458 73 37 0.0 1.0 0.00 0.00 0.00 97 1011.7
20260904104953 73 117 0.0 0.0 0.00 0.00 0.00 97 1011.8
20260904104448 74 57 0.0 2.0 0.00 0.00 0.00 96 1011.9
20260904103944 74 62 1.0 2.0 0.00 0.00 0.00 96 1011.8
20260904103440 74 63 1.0 2.0 0.00 0.00 0.00 96 1011.7
20260904102936 74 74 1.0 2.0 0.00 0.00 0.00 96 1011.7
20260904102431 74 75 1.0 2.0 0.00 0.00 0.00 96 1011.9
20260904101927 74 61 0.0 2.0 0.00 0.00 0.00 96 1011.6
20260904101423 75 46 1.0 2.0 0.00 0.00 0.00 95 1011.7
20260904100919 75 72 1.0 1.0 0.00 0.00 0.00 95 1011.7
20260904100415 75 47 0.0 2.0 0.00 0.00 0.00 95 1011.4
20260904095914 75 49 1.0 2.0 0.00 0.00 0.00 95 1011.4
20260904095409 75 71 2.0 2.0 0.00 0.00 0.00 95 1011.3
20260904094904 75 58 2.0 2.0 0.00 0.00 0.00 95 1011.4
20260904094359 75 77 0.0 1.0 0.00 0.00 0.00 95 1011.4
20260904093855 75 6 0.0 1.0 0.00 0.00 0.00 95 1011.4
20260904093355 76 38 0.0 0.0 0.00 0.00 0.00 95 1011.2
20260904092851 76 161 0.0 1.0 0.00 0.00 0.00 96 1011.1
20260904092347 75 164 0.0 1.0 0.00 0.00 0.00 97 1011.2
20260904091843 75 118 0.0 1.0 0.00 0.00 0.00 97 1011.5
20260904091338 75 42 0.0 2.0 0.00 0.00 0.00 97 1011.4
20260904090833 75 50 0.0 1.0 0.00 0.00 0.00 98 1011.4
20260904090329 75 202 0.0 1.0 0.00 0.00 0.00 98 1011.3
20260904085824 75 176 1.0 2.0 0.00 0.00 0.00 98 1011.4
20260904085319 74 172 0.0 1.0 0.00 0.00 0.00 98 1011.3
20260904084814 74 157 0.0 0.0 0.00 0.00 0.00 98 1011.4
20260904084310 74 149 0.0 1.0 0.00 0.00 0.00 98 1011.7
20260904083806 74 138 0.0 1.0 0.00 0.00 0.00 98 1012.0
20260904083303 73 107 0.0 0.0 0.00 0.00 0.00 98 1012.3
20260904082803 73 71 1.0 2.0 0.00 0.00 0.00 98 1012.5
20260904082258 73 77 1.0 2.0 0.00 0.00 0.00 98 1012.5
20260904081753 73 54 2.0 2.0 0.00 0.00 0.00 97 1012.4
20260904081248 73 49 2.0 2.0 0.00 0.00 0.00 97 1012.4
20260904080744 73 77 1.0 2.0 0.00 0.00 0.00 97 1012.2
20260904080239 73 54 0.0 2.0 0.00 0.00 0.00 97 1012.2
20260904075736 73 51 0.0 2.0 0.00 0.00 0.00 97 1012.0
20260904075231 73 25 2.0 2.0 0.00 0.00 0.00 97 1012.0
20260904074730 73 72 0.0 2.0 0.00 0.00 0.00 97 1012.0
20260904074224 73 78 1.0 2.0 0.00 0.00 0.00 97 1011.9
20260904073720 73 87 1.0 2.0 0.00 0.00 0.00 97 1011.7
20260904073216 73 40 1.0 2.0 0.00 0.00 0.00 97 1011.8
20260904072712 73 79 0.0 2.0 0.00 0.00 0.00 97 1011.6
20260904072212 73 79 1.0 2.0 0.00 0.00 0.00 96 1011.7
20260904071708 73 39 2.0 2.0 0.00 0.00 0.00 96 1011.5
20260904071203 73 51 0.0 1.0 0.00 0.00 0.00 96 1011.3
20260904070702 73 52 0.0 1.0 0.00 0.00 0.00 96 1011.4
20260904070201 74 50 0.0 1.0 0.00 0.00 0.00 96 1011.7
20260904065656 73 80 0.0 1.0 0.00 0.00 0.00 97 1011.5
20260904065154 73 58 0.0 1.0 0.00 0.00 0.00 97 1011.8
20260904064653 73 58 0.0 1.0 0.00 0.00 0.00 97 1011.8
20260904064148 73 89 0.0 1.0 0.00 0.00 0.00 97 1012.0
20260904063644 73 81 0.0 1.0 0.00 0.00 0.00 97 1011.8
20260904063140 73 113 0.0 1.0 0.00 0.00 0.00 96 1011.9
20260904062636 73 89 0.0 0.0 0.00 0.00 0.00 96 1011.9
20260904062131 73 62 0.0 1.0 0.00 0.00 0.00 96 1012.0
20260904061627 73 105 0.0 1.0 0.00 0.00 0.00 96 1012.5
20260904061123 73 50 0.0 1.0 0.00 0.00 0.00 96 1012.5
20260904060619 73 50 0.0 2.0 0.00 0.00 0.00 96 1012.8
20260904060116 73 37 0.0 0.0 0.00 0.00 0.00 96 1012.8
20260904055615 73 55 0.0 1.0 0.00 0.00 0.00 96 1012.8
20260904055111 73 52 0.0 1.0 0.00 0.00 0.00 96 1013.2
20260904054606 73 89 0.0 1.0 0.00 0.00 0.00 96 1013.0
20260904054102 73 92 0.0 1.0 0.00 0.00 0.00 96 1013.1
20260904053601 73 58 1.0 2.0 0.00 0.00 0.00 96 1013.1
20260904053057 73 49 0.0 2.0 0.00 0.00 0.00 95 1013.1
20260904052554 73 343 0.0 1.0 0.00 0.00 0.00 95 1013.1
20260904052049 73 66 1.0 2.0 0.00 0.00 0.00 95 1013.0
20260904051545 73 84 0.0 2.0 0.00 0.00 0.00 95 1013.0
20260904051044 73 62 0.0 1.0 0.00 0.00 0.00 95 1013.1
20260904050541 73 129 0.0 0.0 0.00 0.00 0.00 95 1013.0
20260904050037 73 74 1.0 2.0 0.00 0.16 0.16 95 1013.2
20260904045532 73 0 0.0 2.0 0.00 0.16 0.16 94 1013.0
20260904045026 73 89 0.0 2.0 0.00 0.16 0.16 94 1012.8
20260904044522 73 55 0.0 1.0 0.00 0.16 0.16 94 1013.0
20260904044018 73 89 0.0 0.0 0.00 0.16 0.16 94 1013.0
20260904043514 73 44 0.0 1.0 0.00 0.16 0.16 93 1013.1
20260904043010 73 25 0.0 1.0 0.00 0.16 0.16 93 1013.0
20260904042506 74 66 0.0 1.0 0.00 0.16 0.16 93 1012.7
20260904042001 74 67 0.0 1.0 0.00 0.16 0.16 93 1012.8
20260904041457 74 60 0.0 1.0 0.00 0.16 0.16 92 1012.8
20260904040953 74 44 0.0 0.0 0.00 0.16 0.16 92 1013.0
20260904040452 74 42 0.0 1.0 0.00 0.16 0.16 92 1013.1
20260904035948 74 76 0.0 0.0 0.00 0.16 0.16 92 1013.0
20260904035444 74 85 0.0 2.0 0.00 0.16 0.16 91 1013.0
20260904034944 74 74 1.0 2.0 0.00 0.16 0.16 91 1013.1
20260904034439 74 89 0.0 2.0 0.00 0.16 0.16 91 1013.1
20260904033935 74 52 1.0 1.0 0.00 0.16 0.16 90 1012.9
20260904033431 75 84 0.0 0.0 0.00 0.16 0.16 90 1013.3
20260904032927 75 57 0.0 2.0 0.00 0.16 0.16 90 1013.3
20260904032422 75 56 0.0 2.0 0.00 0.16 0.16 89 1013.4
20260904031916 75 73 0.0 2.0 0.00 0.16 0.16 89 1013.2
20260904031411 75 66 0.0 1.0 0.00 0.16 0.16 89 1013.3
20260904030907 75 73 1.0 4.0 0.00 0.16 0.16 89 1013.4
20260904030402 75 44 0.0 2.0 0.00 0.16 0.16 89 1013.2
20260904025902 75 54 2.0 2.0 0.00 0.16 0.16 89 1013.3
20260904025359 75 62 0.0 2.0 0.00 0.16 0.16 89 1013.2
20260904024858 75 46 0.0 1.0 0.00 0.16 0.16 88 1013.4
20260904024353 75 351 0.0 1.0 0.00 0.16 0.16 88 1013.3
20260904023850 75 85 1.0 2.0 0.00 0.16 0.16 88 1013.5
20260904023346 76 81 1.0 2.0 0.00 0.16 0.16 87 1013.2
20260904022844 76 98 0.0 2.0 0.00 0.16 0.16 87 1013.2
20260904022342 76 69 1.0 2.0 0.00 0.16 0.16 87 1013.2
20260904021839 76 62 0.0 1.0 0.00 0.16 0.16 87 1013.2
20260904021338 76 110 0.0 0.0 0.00 0.16 0.16 87 1012.9
20260904020834 76 69 0.0 2.0 0.00 0.16 0.16 87 1013.1
20260904020329 76 40 0.0 2.0 0.00 0.16 0.16 88 1013.1
20260904015827 76 64 2.0 2.0 0.00 0.16 0.16 87 1013.0
20260904015323 76 19 2.0 3.0 0.00 0.16 0.16 87 1012.9
20260904014821 76 45 2.0 3.0 0.00 0.16 0.16 87 1012.8
20260904014317 76 56 0.0 2.0 0.00 0.16 0.16 86 1012.6
20260904013813 76 37 0.0 1.0 0.00 0.16 0.16 85 1012.6
20260904013309 76 37 0.0 0.0 0.00 0.16 0.16 85 1012.5
20260904012805 76 85 0.0 1.0 0.00 0.16 0.16 85 1012.5
20260904012306 77 76 0.0 1.0 0.00 0.16 0.16 85 1012.7
20260904011804 77 30 1.0 2.0 0.00 0.16 0.16 84 1012.8
20260904011259 77 53 2.0 2.0 0.00 0.16 0.16 84 1012.5
20260904010759 77 80 0.0 0.0 0.00 0.16 0.16 82 1012.5
20260904010257 77 33 0.0 1.0 0.00 0.16 0.16 83 1012.3
20260904005757 78 16 0.0 1.0 0.00 0.16 0.16 83 1012.5
20260904005253 78 27 1.0 2.0 0.00 0.16 0.16 82 1012.2
20260904004747 79 49 1.0 1.0 0.00 0.16 0.16 80 1012.2